Theta_e
313 313 311 309 307 305 305 305 306 308 307 307 307 307 306 307 308 309 309 309 308 309 310 310 311 312 312 313 313 314 314 313 316 322 324 322 318 317 315 313 315 314 312 313 315 316 315 315 316 315 318 319 321 324 323 323 323 324 327 322 318 319 317 317 320 319 320 319 317 317 317 317 317 316 316 315 315 316 316 315 314 314 314 314 313 314 314 316
313 312 311 310 308 306 306 307 307 308 308 308 308 308 307 307 309 310 311 311 309 310 311 312 313 313 314 313 314 314 313 315 320 323 320 317 317 316 315 314 315 313 314 317 316 316 315 315 316 315 316 319 321 323 323 323 322 323 326 321 318 319 316 317 318 318 319 319 318 317 316 316 317 316 315 315 316 316 316 315 315 315 314 314 314 314 315 316
312 310 311 311 310 308 307 307 308 308 308 309 309 309 309 308 308 309 312 312 311 311 312 314 314 314 314 313 315 313 316 323 325 322 317 314 316 315 315 314 313 312 315 317 315 315 315 315 315 315 316 318 319 320 321 323 322 321 321 321 319 318 316 316 317 317 318 318 318 317 316 315 316 316 315 316 316 316 316 315 316 316 315 314 313 314 315 315
312 311 311 311 311 311 310 309 308 308 309 309 310 310 310 309 309 310 312 313 312 313 314 315 314 315 314 314 315 313 321 329 324 319 316 314 315 314 314 314 313 313 315 315 315 315 315 315 315 316 316 318 318 317 318 321 321 320 319 320 318 316 316 316 317 317 317 317 317 317 316 315 316 315 315 315 316 317 316 314 315 315 314 314 313 314 314 315
312 311 311 311 311 311 310 310 310 309 308 309 310 310 311 311 311 311 312 313 313 314 315 315 315 315 314 316 315 315 326 326 317 317 315 313 314 313 314 314 314 314 315 315 315 316 316 316 316 316 317 318 319 318 317 317 318 318 318 319 317 317 318 316 317 317 317 316 315 316 316 315 316 315 315 315 317 317 315 313 313 313 313 313 313 313 314 314
311 312 312 311 310 311 311 311 311 310 309 310 310 310 311 312 313 313 313 314 315 315 315 315 314 315 315 316 314 318 327 321 315 318 314 314 314 313 315 314 315 314 315 316 316 317 317 316 316 317 318 317 319 318 317 317 317 318 318 318 318 317 317 317 317 316 316 315 315 316 316 316 316 316 316 316 317 316 313 312 312 311 312 312 313 313 314 314
311 312 312 311 310 310 310 310 310 310 309 310 310 311 311 312 314 314 314 314 316 316 316 315 314 315 316 316 319 322 324 320 318 317 314 315 313 313 314 314 315 314 315 316 317 317 317 317 316 317 318 318 318 317 316 316 316 317 318 318 318 317 317 318 317 316 316 316 316 316 315 316 315 316 316 316 315 313 311 311 311 311 312 312 312 312 313 313
311 312 311 310 308 308 309 309 310 310 309 311 311 311 312 313 314 315 315 315 316 316 316 316 316 317 316 317 325 326 323 322 317 315 315 314 313 313 314 314 314 314 317 317 317 318 317 318 317 317 318 317 316 316 315 315 316 317 318 318 317 316 316 317 317 316 316 315 316 316 315 315 316 315 315 315 313 311 311 311 311 311 312 312 312 312 312 312
310 310 310 309 308 307 308 309 310 310 309 311 311 312 312 313 314 315 316 315 315 316 316 316 317 318 316 318 325 323 321 322 316 315 315 314 314 313 314 316 315 315 317 317 317 318 317 318 318 317 317 317 316 316 316 315 317 317 317 317 316 317 317 317 316 316 316 316 316 316 315 315 315 315 315 315 312 311 311 311 311 311 312 311 311 311 311 311
311 311 310 310 310 310 310 309 310 310 310 311 312 313 314 314 315 315 316 315 315 316 316 316 317 318 320 323 325 321 321 320 317 317 317 316 316 313 315 318 316 316 317 317 318 317 318 318 318 317 317 317 316 316 316 315 316 315 316 316 316 316 317 317 317 316 317 316 316 315 315 316 315 315 315 314 312 311 311 311 312 312 312 311 311 310 310 310
312 313 312 311 312 312 313 312 311 311 311 311 313 314 315 314 315 315 315 315 315 316 316 317 317 317 321 323 321 322 323 320 319 319 318 317 316 314 316 317 316 317 318 318 318 317 317 317 316 316 316 316 316 316 315 315 315 315 315 315 316 316 316 317 316 317 317 316 316 315 315 315 313 314 315 314 311 312 312 311 311 312 312 311 311 310 310 310
312 313 313 313 312 313 314 313 312 312 312 312 313 314 315 315 314 315 315 315 316 317 316 317 317 317 321 322 320 322 323 321 320 319 318 317 316 316 316 316 316 317 318 318 318 317 316 316 316 316 316 316 316 317 315 314 315 315 315 315 317 317 317 318 316 317 317 316 315 314 315 316 313 314 314 312 312 312 313 312 312 312 312 311 311 310 310 309
311 312 313 313 314 315 316 315 313 313 313 313 313 314 315 315 315 315 317 316 316 317 317 318 317 317 321 322 320 320 320 321 321 320 319 318 317 317 316 316 316 316 317 318 319 317 314 315 316 316 316 317 317 316 315 314 315 315 316 316 317 318 318 319 317 317 316 315 314 314 317 318 315 313 313 311 312 313 313 313 313 313 312 311 311 310 310 309
312 311 312 314 316 317 317 315 314 313 313 312 313 314 315 315 315 317 318 317 318 317 318 317 316 319 321 320 319 318 318 319 320 319 318 317 317 317 316 316 316 316 316 317 317 315 313 315 316 316 315 316 316 314 315 315 315 316 317 318 319 319 319 318 317 316 315 314 313 314 318 319 316 313 312 311 312 313 313 313 313 313 312 312 312 311 310 308
312 312 313 315 316 317 316 315 314 313 313 312 313 314 315 315 317 318 318 318 319 317 316 317 316 320 322 319 318 317 316 317 318 318 317 318 319 318 317 316 315 315 315 315 315 313 314 315 316 317 315 315 315 315 317 318 317 317 318 320 321 320 319 318 316 316 316 314 313 315 318 318 315 313 312 312 313 313 314 314 313 313 312 311 311 310 310 308
313 312 313 315 316 316 316 315 315 314 314 313 313 315 316 317 319 319 318 318 318 316 318 321 319 318 319 319 319 317 317 318 319 318 317 318 319 318 317 316 315 314 314 314 313 313 315 315 316 318 316 315 316 317 319 320 320 320 320 320 321 321 320 318 316 316 316 314 313 315 317 318 316 314 312 312 312 313 315 315 313 313 312 311 311 310 310 308
313 312 313 315 316 317 317 317 316 315 314 312 313 317 318 319 321 320 318 318 317 316 319 323 319 317 318 317 318 318 319 319 320 319 317 317 319 318 316 316 315 315 314 314 314 315 315 316 317 318 317 317 317 319 321 322 322 322 321 321 321 321 319 318 317 317 317 316 314 315 316 317 317 315 313 312 312 313 314 315 314 313 312 312 311 311 310 310
313 313 313 315 316 317 318 317 316 315 313 312 314 317 318 318 319 320 320 318 317 318 319 319 318 319 319 317 317 318 320 320 320 319 317 316 317 317 317 316 316 315 315 315 315 315 316 317 317 318 319 318 318 320 323 324 322 322 322 321 321 321 320 320 318 317 317 316 316 317 316 317 318 315 313 313 312 312 313 315 314 313 312 312 311 311 310 310
313 314 314 315 316 317 317 317 317 315 314 314 316 317 318 317 318 319 321 320 319 321 323 320 318 320 320 318 318 318 319 319 318 319 317 316 316 317 317 316 316 316 316 318 317 317 317 319 320 321 322 320 319 319 321 322 321 321 322 322 322 321 321 320 318 317 316 316 318 319 318 318 318 315 313 313 313 313 314 315 315 313 312 312 311 311 311 310
314 314 314 315 317 317 316 317 316 314 313 316 318 319 320 321 322 322 321 321 320 320 320 319 317 318 319 319 318 316 317 317 317 318 316 315 316 316 316 316 318 318 318 320 320 318 318 321 323 322 321 319 320 320 319 320 320 320 322 322 322 321 321 320 318 316 316 318 319 320 321 320 320 318 314 313 314 314 315 315 314 313 312 311 311 311 310 309
314 314 316 315 316 316 316 317 315 314 314 317 319 322 323 323 325 323 321 321 321 319 319 318 318 318 319 319 316 316 317 316 317 318 316 315 316 316 317 317 319 320 319 321 321 318 319 322 323 321 320 319 320 321 320 320 319 320 321 321 322 322 322 321 319 316 317 319 320 320 321 320 320 320 316 313 314 313 314 315 313 312 312 312 311 311 310 308
313 315 316 315 315 316 317 316 316 314 314 317 319 322 323 322 320 319 320 322 321 321 320 318 318 318 319 318 316 316 319 317 317 318 316 315 316 317 317 317 319 320 320 321 322 321 322 322 320 320 320 320 321 321 320 321 321 322 322 321 322 322 322 321 318 316 316 318 320 320 320 320 320 321 318 313 313 313 314 315 314 313 312 312 311 310 309 307
314 314 315 315 315 316 317 317 316 314 314 317 319 321 322 320 317 317 320 320 320 322 322 320 319 318 318 318 316 317 319 319 319 319 317 315 316 317 318 318 319 320 321 321 322 324 324 322 320 320 321 321 321 320 320 320 321 323 322 322 323 322 324 323 319 317 316 318 320 320 320 320 320 321 319 314 314 315 315 315 316 315 313 312 311 310 308 307
314 315 316 316 315 317 318 316 315 314 314 316 318 320 321 319 317 319 322 320 319 321 322 322 320 319 319 318 317 317 318 318 319 319 316 316 316 317 318 318 319 320 321 320 321 323 324 322 321 320 321 322 321 321 321 321 320 323 324 323 323 323 324 324 321 318 317 318 319 319 322 322 321 321 319 316 316 315 313 312 313 313 312 312 312 310 309 308
314 315 316 316 316 318 318 316 315 314 315 316 316 318 320 320 317 318 322 322 321 323 325 325 324 322 320 318 317 318 317 318 319 319 316 316 317 318 318 318 319 321 321 321 321 322 322 321 323 323 322 322 323 322 324 323 321 323 325 323 322 323 324 325 325 322 323 326 321 320 328 330 323 323 321 317 316 314 312 311 311 311 310 310 309 309 308 308
314 315 316 316 317 318 316 315 315 315 316 316 316 317 318 320 319 318 322 324 324 326 327 326 325 324 322 319 317 318 321 319 319 318 316 316 317 318 319 319 319 320 322 322 322 322 321 320 323 326 324 325 325 324 325 325 322 323 328 327 324 322 325 327 327 327 329 330 323 320 328 331 325 324 323 318 314 314 312 311 311 310 309 308 308 307 307 307
315 315 316 317 318 317 315 315 316 315 316 317 317 316 316 318 318 319 324 327 326 328 327 325 324 323 321 320 318 321 324 321 318 317 316 317 317 317 319 319 320 320 319 321 325 323 321 321 325 326 326 328 325 323 325 324 324 327 329 329 326 323 326 327 327 329 329 327 323 321 324 327 325 324 322 316 315 315 313 311 310 310 309 308 307 307 306 305
316 316 317 318 318 317 316 316 317 316 317 319 316 316 317 317 317 321 327 329 328 327 326 322 319 319 320 320 319 320 320 319 321 317 313 314 316 316 319 320 320 320 318 322 326 325 322 323 327 327 326 327 324 323 327 324 324 327 326 326 326 325 326 326 326 329 327 325 326 324 323 326 326 324 319 316 317 317 314 312 310 310 309 307 307 307 306 304
318 317 318 318 318 318 317 318 317 316 318 319 318 317 318 317 318 323 327 328 328 326 323 320 318 318 320 320 321 319 316 316 319 316 312 314 315 315 317 319 319 320 319 320 324 326 323 320 323 325 325 325 323 325 330 328 324 325 325 325 325 325 324 324 325 326 325 325 327 325 324 326 328 326 320 318 320 319 316 313 310 310 309 307 307 307 305 304
318 318 318 318 317 316 317 318 317 318 318 319 319 318 317 318 321 327 328 328 328 325 319 318 319 320 320 321 322 319 317 315 314 314 314 315 314 314 316 317 317 321 323 322 323 323 319 315 318 322 322 321 321 321 323 326 325 324 325 325 324 324 324 324 324 324 325 326 326 325 324 324 327 327 322 321 321 319 319 317 312 310 309 308 307 306 305 304
317 318 319 319 317 316 317 317 317 318 318 318 319 318 319 323 326 330 329 326 324 324 318 318 321 321 321 323 324 320 318 317 314 315 316 316 316 315 317 320 320 322 324 325 324 321 318 319 321 320 318 318 321 321 318 320 323 324 325 325 325 325 323 323 323 323 325 327 326 325 324 323 326 326 321 321 321 318 320 319 313 311 310 307 307 305 304 303
317 318 319 319 318 317 317 316 316 318 318 318 318 318 322 327 328 330 328 322 322 324 322 321 321 321 321 324 325 322 321 319 316 317 318 317 317 316 318 322 322 325 327 325 324 324 322 322 322 321 319 318 323 324 319 318 321 324 326 326 329 328 325 326 327 325 326 326 322 322 324 324 324 323 320 320 319 318 320 318 313 311 310 307 306 304 303 303
319 319 319 319 318 317 317 316 316 317 318 318 319 321 326 328 328 328 325 323 325 325 323 322 321 322 323 325 325 323 322 321 317 318 319 319 319 318 319 321 322 326 329 325 325 327 326 324 322 321 319 319 322 323 322 322 321 322 325 326 329 329 328 330 329 328 329 325 318 318 324 326 326 324 321 320 317 316 318 317 314 312 309 307 306 304 303 302
320 320 320 319 319 318 317 316 316 316 317 318 321 324 328 328 328 327 325 324 325 323 322 322 322 323 323 325 325 322 323 323 318 319 321 320 321 321 320 320 321 324 326 326 326 327 329 329 325 321 320 320 320 321 323 323 320 320 322 324 327 328 330 332 330 329 331 325 316 317 324 329 328 324 318 314 312 312 314 315 314 311 309 307 305 304 303 302
320 321 320 318 318 318 317 316 316 316 316 319 323 326 327 326 326 327 326 325 323 322 321 322 324 325 325 325 324 321 324 324 320 320 322 322 322 323 322 320 321 322 324 326 328 326 328 330 325 321 321 319 319 320 321 322 321 320 321 324 325 326 327 329 326 322 324 323 319 319 325 325 321 317 312 309 310 310 311 312 311 310 308 306 305 303 303 302
320 320 319 318 318 317 317 316 316 316 317 320 325 326 325 325 325 326 326 324 322 322 323 324 325 326 327 327 323 322 323 324 322 322 323 323 322 323 323 322 320 321 323 326 328 328 328 329 324 320 319 318 319 322 321 323 324 322 323 324 324 324 324 326 325 320 320 325 323 321 323 320 316 316 312 310 312 310 310 311 310 308 307 305 304 303 302 302
319 319 318 318 317 318 317 316 316 316 317 321 326 325 323 324 326 326 325 324 323 322 323 325 326 326 328 328 324 322 323 323 322 323 323 323 323 323 323 323 322 321 322 324 327 329 330 328 322 319 320 318 317 320 321 322 323 323 324 324 322 324 322 322 325 324 324 327 325 322 322 320 320 321 314 311 314 312 309 310 310 308 307 305 304 303 302 302
318 318 318 318 318 318 317 316 316 316 318 322 324 323 322 324 326 327 326 325 323 322 323 325 325 325 326 328 326 322 323 324 323 323 325 324 324 324 322 323 324 321 321 324 326 328 329 329 322 318 320 317 314 318 321 321 320 320 321 321 322 326 325 322 325 327 327 328 325 323 323 320 320 321 317 313 314 312 309 310 310 308 307 305 305 303 303 302
318 318 319 319 318 318 318 316 315 316 320 323 322 321 322 323 325 326 325 323 323 324 324 325 325 325 325 326 326 323 322 325 323 323 325 324 324 325 322 323 325 323 321 322 325 325 326 330 325 317 316 316 314 318 322 322 319 317 317 319 321 323 325 324 323 325 327 327 326 326 326 325 322 320 318 316 313 311 309 309 309 308 307 306 305 304 303 302
318 319 321 319 318 319 317 316 316 317 320 322 321 321 321 321 323 325 325 323 323 324 325 325 325 326 326 326 326 323 321 324 324 323 325 325 324 325 323 322 324 324 323 322 324 324 324 328 326 318 315 317 318 319 320 321 319 317 318 320 321 320 321 324 323 322 324 325 326 326 326 328 323 316 316 315 312 311 310 309 309 308 307 306 306 304 303 302
318 321 322 318 318 318 317 316 317 319 320 321 321 321 321 322 323 325 324 324 324 323 323 327 328 326 326 325 324 322 320 321 322 323 324 323 323 325 324 322 325 326 326 327 325 324 324 324 325 320 316 318 320 318 317 320 320 319 318 319 320 320 321 324 324 322 321 323 325 325 325 328 322 315 315 316 314 312 310 310 309 308 307 307 306 305 303 303
319 322 319 317 318 317 317 318 319 319 319 318 319 320 321 322 323 324 324 324 325 323 322 326 329 328 326 325 324 321 320 319 319 321 322 320 322 325 321 319 323 325 325 325 323 322 323 322 323 323 319 318 318 316 317 319 320 319 318 318 320 320 320 323 325 325 323 323 324 323 325 326 320 314 315 317 317 315 312 310 309 308 308 307 307 306 304 303
320 320 316 315 318 317 317 320 320 319 319 317 317 319 320 321 321 323 324 323 323 324 324 324 326 326 326 326 323 321 320 320 319 320 321 321 321 320 316 317 321 322 321 321 320 321 322 322 323 324 322 319 316 314 315 315 316 318 320 319 319 319 319 321 322 324 324 323 323 322 323 322 317 315 314 313 315 316 314 312 311 310 309 309 309 308 305 304
318 317 314 314 316 317 319 321 319 318 318 318 318 319 320 320 321 322 323 322 322 323 324 323 323 324 326 325 323 321 321 322 321 319 320 323 320 313 314 319 320 320 321 321 321 321 321 323 324 324 326 324 319 317 317 316 314 317 319 318 318 319 320 319 318 320 322 323 323 322 323 322 317 315 314 311 313 315 314 313 313 313 312 310 309 308 306 305
316 316 314 312 311 314 319 321 319 317 317 317 318 319 320 320 320 321 322 322 321 321 322 323 324 324 325 324 323 322 321 321 324 321 319 322 318 311 312 315 315 318 321 320 321 321 321 323 324 324 327 328 326 323 321 319 316 315 316 317 318 319 320 320 319 320 321 322 323 322 322 319 314 313 313 312 312 312 312 313 314 314 313 311 309 309 307 306
317 317 315 313 311 312 316 318 318 318 317 317 318 317 318 319 320 320 321 322 321 320 322 324 324 324 324 324 323 323 321 321 323 323 320 321 319 311 309 310 312 316 318 317 318 320 322 322 322 323 325 326 326 324 320 319 318 317 317 317 318 318 319 320 320 320 321 322 322 322 321 319 315 313 313 313 312 312 311 312 312 312 313 311 310 309 308 307
316 317 317 316 314 314 314 316 318 318 317 316 316 316 316 318 319 319 319 321 321 320 320 321 322 323 323 323 323 323 322 321 322 322 320 320 317 310 307 308 311 312 313 313 315 318 321 321 320 321 322 322 323 320 317 318 318 318 318 317 317 317 319 320 320 320 322 323 321 321 322 323 318 314 314 315 314 312 311 310 309 310 311 312 311 309 308 307
314 317 318 317 317 317 315 315 316 318 318 317 316 316 316 316 318 319 318 319 320 320 320 319 319 321 322 322 323 323 323 322 321 320 319 319 317 312 310 310 309 310 311 312 313 316 319 319 318 320 320 320 320 317 316 317 318 318 318 318 317 317 318 319 319 319 320 321 322 322 324 323 318 313 314 316 314 312 311 309 307 308 310 310 309 309 308 307
312 314 314 314 316 318 317 315 316 317 319 318 316 317 318 316 317 318 317 317 318 319 320 320 319 319 321 322 322 321 322 322 321 320 319 319 318 315 314 314 311 308 310 313 312 314 318 318 317 318 319 319 319 317 315 315 316 317 317 317 317 316 316 317 318 318 318 319 320 320 323 323 318 313 314 314 313 311 311 309 309 309 308 308 308 308 307 306
311 312 313 313 313 315 316 316 316 317 318 318 317 317 317 317 317 317 317 317 318 318 318 320 320 319 319 321 321 321 320 320 321 320 318 318 317 315 316 317 313 308 308 312 312 312 316 317 315 316 318 318 318 317 316 315 315 316 316 317 317 316 316 316 316 317 317 318 318 318 320 320 317 316 317 315 313 312 312 313 313 313 312 310 309 308 306 306
305 304 307 313 314 314 316 317 317 318 317 317 318 317 317 317 317 317 317 316 317 318 318 319 319 318 317 319 320 320 319 318 320 320 318 318 317 316 316 317 315 311 309 310 312 312 313 315 314 314 318 319 317 317 316 314 314 315 316 316 316 316 316 316 315 316 316 317 317 317 318 318 317 319 317 313 313 316 317 318 316 316 316 313 311 310 307 305
303 302 304 311 315 315 316 316 316 317 317 316 317 317 317 317 317 317 317 316 316 316 316 317 318 316 316 318 318 319 318 317 317 316 316 316 316 316 316 315 315 313 310 309 311 311 311 313 314 315 318 318 314 314 315 313 314 317 317 317 316 315 316 316 315 315 315 315 316 316 317 318 317 317 315 312 314 318 320 320 318 316 315 312 310 309 307 305
Wind_Speed
3 2 3 3 4 6 5 5 5 4 5 5 5 4 4 4 3 3 3 2 2 2 2 3 4 5 5 6 7 8 10 11 9 6 2 3 6 4 4 2 1 1 1 2 2 4 5 5 3 2 3 2 1 0 0 1 1 1 1 1 3 1 2 2 3 3 4 5 4 3 2 2 3 3 2 0 2 5 3 8 6 8 9 8 8 7 8 10
3 3 3 3 4 5 5 5 4 4 4 4 4 4 4 4 3 2 2 2 2 2 3 3 4 4 5 6 7 9 11 11 8 3 3 4 5 3 5 4 3 3 2 3 4 5 5 1 1 3 3 2 1 1 1 0 1 1 2 1 2 3 2 3 5 4 2 5 5 4 3 3 1 2 1 1 3 5 2 6 7 7 8 8 9 9 10 12
4 3 3 3 3 4 4 4 4 4 3 3 3 3 3 3 3 2 2 3 3 3 3 3 4 4 5 6 7 9 11 8 5 1 5 4 3 5 6 5 4 4 3 4 6 6 6 5 4 4 3 1 1 1 1 0 1 0 1 2 2 3 4 4 6 5 5 4 3 4 3 2 1 2 0 2 3 2 1 4 5 7 6 6 7 9 10 11
4 3 3 3 3 3 3 3 3 3 3 2 2 2 3 3 4 3 3 3 3 3 3 3 4 4 4 6 7 9 10 4 1 2 5 6 7 8 7 6 5 4 4 4 4 4 5 5 4 4 3 1 2 1 1 2 1 1 1 1 2 1 3 4 5 6 5 5 3 4 2 2 2 2 1 2 4 0 3 4 4 6 5 5 6 7 10 11
4 3 3 3 3 2 3 3 3 4 3 3 3 3 4 3 4 4 3 3 3 3 3 3 3 3 4 5 6 8 7 2 2 3 6 7 7 8 7 7 6 5 6 4 4 4 5 4 3 2 2 1 2 1 0 3 1 1 1 4 4 2 2 5 6 6 4 3 2 1 0 1 2 1 2 2 3 1 3 3 4 5 5 5 5 7 9 10
4 3 4 4 3 3 3 3 3 4 4 4 4 4 4 4 4 4 4 3 3 3 3 3 3 3 4 4 6 7 5 1 4 7 8 7 7 7 7 7 5 6 6 3 4 4 4 3 2 2 2 2 1 2 2 2 1 1 1 4 4 3 2 4 5 3 1 0 2 2 1 1 1 3 3 3 0 3 4 4 5 5 5 6 6 7 8 7
5 4 4 4 5 4 4 4 4 5 5 4 4 4 5 4 4 4 4 4 3 3 3 3 3 3 3 4 5 4 2 1 4 9 8 7 7 6 5 5 4 5 4 3 4 3 3 3 3 2 2 3 1 3 2 1 1 2 1 4 4 3 2 4 5 3 1 2 2 1 2 1 3 4 1 3 5 6 5 5 6 6 6 7 7 7 7 7
6 5 5 5 6 6 5 5 5 6 5 4 5 5 5 5 5 4 4 4 3 3 3 2 2 3 3 4 4 2 3 1 5 9 8 7 6 5 4 2 2 4 3 3 5 5 4 4 3 3 3 2 2 1 1 2 3 3 1 2 3 1 1 4 6 5 4 4 3 1 1 5 6 2 1 5 7 6 6 6 6 6 6 7 6 6 6 7
7 6 6 6 6 5 6 5 5 6 6 4 5 5 5 5 5 4 4 4 3 2 2 2 1 2 3 3 3 3 1 3 6 8 7 6 5 5 4 1 1 2 2 1 3 4 2 3 3 3 4 2 2 2 2 1 1 1 3 3 1 1 3 5 6 6 6 5 4 4 5 8 4 3 2 5 8 6 6 5 5 5 5 5 5 5 6 6
9 8 8 6 4 5 6 6 6 6 6 6 5 5 6 6 5 5 4 4 3 2 2 2 1 1 3 3 3 2 1 5 6 6 5 5 4 4 3 1 1 3 4 1 1 4 3 4 4 3 3 1 1 2 2 2 1 2 4 4 4 4 4 4 5 6 6 5 6 6 6 5 3 3 2 4 8 7 7 6 4 5 5 5 5 5 6 7
10 9 9 7 4 5 6 6 6 6 7 7 6 6 6 6 6 5 4 4 3 2 2 2 1 2 3 3 3 2 2 5 6 5 5 5 5 5 4 3 2 2 4 3 1 3 5 6 4 2 2 2 1 1 1 1 1 2 4 5 6 7 7 6 7 6 5 3 5 6 6 2 5 1 3 7 8 7 7 6 5 5 5 5 5 5 5 7
11 10 10 9 6 6 7 7 6 6 7 7 7 6 6 7 5 4 4 3 2 2 1 1 1 2 3 3 4 3 5 6 5 5 5 6 6 6 5 4 3 1 3 4 1 2 3 4 4 3 1 2 2 1 1 2 2 2 2 4 6 6 7 9 9 6 5 2 3 4 3 5 6 3 4 9 7 7 7 6 6 5 5 5 5 5 4 6
12 11 11 10 7 7 9 9 8 7 7 7 7 6 6 7 5 3 3 2 1 1 1 1 2 1 2 2 3 5 7 6 6 5 5 5 5 5 4 3 2 2 1 3 3 2 2 1 3 3 1 2 2 1 1 0 0 2 3 3 4 5 6 8 8 6 5 3 4 5 1 5 7 5 6 8 7 7 6 6 6 5 5 5 4 5 4 5
13 12 11 9 7 9 11 11 9 7 7 7 6 6 7 6 4 2 2 2 1 1 1 1 2 0 1 2 2 5 7 5 5 5 6 6 4 4 3 1 1 2 2 1 0 1 2 2 2 3 1 1 0 0 2 1 2 2 4 2 2 3 3 1 5 8 5 2 4 5 2 4 5 7 6 6 7 7 6 6 6 5 5 4 5 5 5 5
15 13 12 10 9 10 12 11 10 9 8 8 7 6 7 4 2 2 2 2 2 2 2 2 3 1 2 3 1 3 5 4 5 6 7 7 4 3 3 2 1 1 2 2 2 3 3 2 1 1 1 1 1 1 2 2 3 3 2 3 3 3 2 0 5 8 5 1 4 5 2 2 5 6 6 6 6 7 6 7 6 5 6 5 5 5 5 5
15 14 14 12 10 10 10 9 9 11 11 9 7 4 3 1 0 1 3 3 3 4 3 1 4 3 3 2 3 2 4 4 6 9 9 8 4 3 6 5 4 3 3 3 3 4 3 2 1 1 0 1 2 3 2 3 3 3 4 3 3 3 4 2 3 6 4 3 5 5 3 1 4 6 7 6 7 7 6 7 7 6 6 6 5 5 5 5
15 15 14 13 10 9 10 9 9 12 12 7 4 1 1 2 2 3 3 3 5 4 2 2 2 3 2 2 3 2 4 6 8 9 8 8 5 5 8 5 5 5 5 5 3 3 2 2 1 1 2 2 3 3 2 3 4 3 4 4 5 5 5 2 1 3 4 4 5 7 6 4 3 8 7 7 8 8 7 7 8 6 5 5 5 5 5 5
15 14 13 12 10 10 11 10 8 11 10 4 3 2 3 4 4 4 3 4 4 2 2 3 2 2 3 3 3 2 6 8 9 7 7 9 7 7 6 4 5 7 5 3 1 2 2 1 2 1 3 3 4 4 4 4 5 4 4 3 4 4 6 4 1 3 6 5 5 6 7 7 5 8 7 8 9 9 8 7 7 7 6 5 5 5 5 5
17 15 13 12 11 10 10 9 8 9 6 2 4 4 4 3 2 3 3 4 3 2 2 3 5 2 1 4 5 6 8 10 8 5 6 9 9 7 5 4 5 5 4 3 3 4 3 1 2 1 4 5 6 6 7 7 5 6 4 1 3 3 4 2 3 4 5 4 5 6 7 7 5 8 8 8 8 8 7 6 7 6 6 5 5 5 5 5
19 17 15 14 13 12 11 10 9 7 3 3 3 2 2 1 1 2 5 6 7 7 4 4 9 4 1 5 7 8 8 8 5 4 8 10 9 8 5 4 4 3 3 3 4 3 3 3 4 5 7 7 7 9 10 9 8 8 4 2 5 3 5 3 3 4 2 2 6 6 6 8 6 7 9 8 7 7 7 6 7 6 6 6 6 6 5 5
20 19 17 15 14 14 13 10 8 6 7 5 2 3 1 0 2 1 3 7 12 14 11 6 10 7 2 7 11 12 6 2 2 5 11 11 9 8 5 5 4 2 5 5 3 2 1 5 7 9 9 7 7 8 9 9 9 8 4 4 5 3 6 5 2 4 3 2 4 6 7 9 9 7 8 9 8 9 9 8 8 8 7 6 6 7 6 5
22 20 18 17 16 15 13 11 8 7 10 6 5 7 3 3 0 2 1 3 9 16 14 11 11 8 4 10 14 11 2 3 4 5 11 11 8 6 5 6 5 4 5 5 3 2 2 6 9 10 8 8 9 7 6 7 7 6 3 2 4 3 5 3 3 3 3 1 3 5 7 8 9 8 8 11 10 9 9 9 9 9 8 7 7 7 6 6
24 22 20 18 16 14 14 13 8 8 13 9 8 9 5 3 2 4 0 3 4 10 11 10 11 10 7 8 12 10 4 6 6 6 14 12 6 4 5 7 7 6 6 7 6 4 5 6 9 12 8 8 9 5 3 4 2 4 3 2 4 3 4 3 1 2 3 2 3 4 6 6 7 6 6 10 9 5 3 4 4 5 7 7 7 7 7 7
25 24 21 18 16 17 17 13 7 9 14 12 13 12 4 2 3 2 1 3 4 6 8 13 12 10 10 7 12 13 6 7 6 6 17 14 5 3 5 7 7 6 6 9 10 9 9 4 4 10 10 8 7 5 4 2 2 4 5 6 5 4 6 5 2 2 2 3 4 3 6 6 8 9 7 6 4 3 3 4 3 2 4 6 6 6 7 7
27 25 22 20 19 21 18 10 8 12 13 12 17 17 10 5 2 1 1 2 5 3 2 10 8 7 9 9 13 12 5 7 6 7 18 17 8 5 3 5 5 6 8 10 10 10 11 6 3 7 9 7 6 5 6 5 4 5 7 9 8 7 7 6 1 2 1 3 3 3 3 4 5 10 9 5 3 3 4 5 5 4 4 5 6 6 6 6
27 25 24 24 23 22 17 8 10 14 12 13 16 15 14 9 3 3 1 2 6 2 2 5 6 7 9 10 11 7 1 5 3 11 21 17 10 5 3 4 3 5 7 7 7 5 4 3 4 7 7 7 6 5 6 7 4 5 4 4 7 8 6 5 4 1 1 3 2 4 3 4 4 5 6 8 7 7 6 5 7 7 6 6 6 6 6 6
27 25 26 26 25 25 16 4 12 16 9 11 15 13 16 13 7 4 1 2 6 4 5 2 3 5 8 11 12 6 1 3 5 8 11 9 7 2 2 7 4 4 3 1 5 2 3 5 3 5 6 6 6 5 6 9 5 4 3 2 3 4 4 4 4 4 3 2 2 3 3 4 6 5 5 8 7 6 7 8 8 8 9 8 7 8 8 7
29 28 27 27 29 30 18 7 14 18 8 5 9 15 17 15 9 3 1 3 4 4 5 1 1 2 4 10 13 6 1 3 5 1 2 1 3 2 4 9 5 6 5 4 5 1 3 6 6 7 7 5 6 4 6 9 5 2 1 2 4 3 1 2 4 4 3 3 3 4 3 3 7 4 6 7 6 7 10 11 11 10 10 10 9 9 9 9
31 31 30 29 31 31 22 10 11 16 14 6 10 18 19 14 8 0 0 3 2 3 2 2 3 2 5 7 8 5 2 1 1 1 2 1 1 2 3 6 4 5 6 9 9 1 1 3 4 6 6 5 3 2 1 6 6 3 3 5 5 3 2 0 2 2 2 5 5 5 6 4 7 3 6 4 5 8 10 10 11 11 10 10 10 10 10 9
31 32 31 30 31 30 23 17 14 14 14 10 13 19 18 10 4 2 3 4 2 1 2 2 3 5 9 8 5 5 4 2 2 2 1 2 1 1 1 1 3 4 3 6 8 2 2 2 1 1 2 2 4 4 5 2 5 6 4 5 4 1 3 2 1 1 2 7 6 7 9 6 5 3 7 6 7 9 8 7 9 10 11 11 10 10 10 9
31 32 35 35 34 30 21 16 20 17 13 12 15 18 13 3 1 5 6 3 2 1 4 2 4 9 12 12 7 7 6 3 5 6 3 3 3 1 2 1 1 2 2 4 4 1 2 2 1 0 1 3 5 4 5 5 3 5 4 4 2 0 2 2 2 2 4 7 5 9 11 10 8 5 5 7 8 10 9 9 12 13 13 12 10 10 10 9
33 33 37 39 35 31 21 15 22 22 15 15 16 13 7 2 2 7 5 2 0 4 6 6 6 9 12 12 7 8 8 5 6 7 5 5 5 5 6 5 5 3 3 4 4 2 3 5 4 1 2 3 5 3 4 5 2 3 5 5 3 1 0 1 2 3 6 6 3 6 8 9 9 7 7 6 2 2 3 8 13 15 14 12 11 10 9 8
37 35 38 40 35 33 26 17 21 24 19 18 15 5 3 5 8 11 9 4 1 1 5 7 8 10 11 9 5 6 6 4 7 7 5 6 5 6 8 7 7 5 3 4 5 2 3 5 7 4 2 4 8 6 3 1 3 6 6 5 5 4 3 4 4 3 5 5 3 1 2 3 4 5 9 6 1 4 4 3 9 12 12 11 11 10 9 9
38 37 39 41 36 33 31 23 22 26 24 19 11 5 6 8 9 11 13 9 3 1 3 7 9 10 10 7 6 8 4 2 8 8 5 7 5 6 8 9 12 7 0 3 4 5 4 5 7 9 3 8 12 10 8 5 5 8 6 5 6 5 3 4 4 4 3 1 3 1 2 3 2 2 4 0 3 4 6 5 8 9 9 9 9 9 9 9
38 39 39 39 36 36 37 30 24 26 23 13 7 9 11 10 9 9 11 8 4 3 4 7 9 9 8 5 5 8 4 2 8 7 6 8 6 7 8 9 13 9 4 4 3 5 7 6 6 8 4 11 13 10 7 7 3 5 4 5 6 4 2 2 2 2 1 1 2 2 3 4 3 1 1 3 5 5 4 7 11 9 9 9 8 9 9 9
39 40 37 35 37 39 40 35 29 27 20 9 7 11 12 11 8 6 7 8 7 6 8 7 6 6 6 4 4 7 3 2 8 6 4 6 6 7 8 7 12 13 9 7 2 4 6 3 2 3 2 7 7 5 6 6 3 3 4 6 5 2 1 3 2 1 1 4 4 4 4 4 1 1 2 5 4 3 1 5 10 9 9 10 8 9 9 9
35 33 29 30 37 40 41 39 35 28 15 7 9 9 8 9 7 4 6 9 10 11 10 6 6 7 7 5 5 8 4 2 7 6 3 5 5 8 11 7 11 17 14 9 3 2 4 2 1 1 2 2 2 2 1 1 2 4 4 5 3 3 1 1 2 1 2 7 4 5 6 4 3 4 2 5 4 3 4 5 8 8 9 9 8 8 9 9
31 23 20 30 41 41 41 41 37 24 8 5 11 9 6 8 8 4 4 7 11 13 10 7 7 8 8 7 6 9 9 5 7 7 4 5 3 7 13 8 9 16 16 10 5 2 3 3 3 1 1 0 2 1 0 3 3 3 2 2 3 1 2 3 2 3 4 6 5 4 6 6 7 6 4 7 9 9 7 6 8 10 11 10 9 9 9 9
25 12 9 27 41 41 44 45 33 15 4 6 11 10 8 10 9 4 3 5 8 10 11 9 7 7 8 8 6 9 10 8 8 7 4 5 3 5 11 8 8 13 16 14 8 2 2 3 2 3 2 2 2 1 4 3 0 2 3 3 1 1 3 4 3 2 3 5 5 3 2 4 7 7 10 13 13 13 12 10 10 12 13 11 10 11 11 11
14 5 4 22 39 43 47 40 20 9 7 8 10 9 9 9 8 7 7 6 4 4 7 10 9 7 6 5 6 7 7 6 8 7 4 5 4 3 6 7 7 8 11 12 8 2 1 2 3 2 3 2 2 4 9 9 7 4 2 3 3 2 1 0 2 2 3 3 4 4 5 5 3 3 10 15 14 14 16 14 12 11 12 11 10 11 11 11
7 5 2 21 42 44 38 22 7 8 9 8 10 10 8 6 6 9 9 5 2 1 1 4 7 7 6 5 5 5 5 4 6 5 3 6 6 3 2 2 4 5 5 5 6 4 2 3 3 1 1 3 3 5 8 8 8 8 7 7 8 6 3 2 4 4 4 3 3 3 6 6 3 3 3 8 10 13 16 15 12 11 12 11 10 12 12 11
4 5 2 21 47 45 24 9 5 7 7 9 10 8 5 3 4 9 10 4 1 1 1 1 3 5 6 5 3 4 6 4 6 6 4 7 8 4 2 3 2 8 6 3 3 2 3 1 2 2 3 3 2 1 3 2 2 2 4 6 6 6 6 6 6 4 4 3 1 1 4 6 3 3 4 3 3 8 11 11 11 10 11 11 10 10 11 10
3 4 2 18 46 42 16 6 9 7 7 9 8 6 5 5 5 8 10 8 4 2 1 1 1 3 4 3 4 6 7 5 7 8 5 7 5 1 1 2 2 7 6 2 2 2 3 2 2 2 2 1 2 1 2 4 2 2 4 4 6 8 9 7 5 3 3 4 3 2 5 6 3 3 5 6 4 6 7 8 10 9 8 9 9 10 10 9
1 2 1 10 32 32 13 7 11 9 9 9 8 8 6 5 8 9 10 11 8 4 4 3 3 4 3 3 4 7 8 5 7 8 4 5 4 1 2 1 2 5 4 1 3 4 3 2 3 1 2 1 0 0 1 2 1 3 4 5 8 10 8 4 2 1 4 8 7 5 7 6 2 3 4 5 6 8 7 6 7 8 8 8 8 9 9 9
1 1 1 3 11 12 6 5 9 10 11 11 11 12 8 4 6 8 9 11 9 7 6 4 4 4 3 3 3 5 8 6 4 4 3 3 3 0 0 1 1 3 3 1 3 6 4 3 5 5 6 7 5 3 3 3 3 3 4 7 9 11 11 7 3 4 9 7 8 7 8 4 2 2 1 2 5 7 6 6 6 7 8 8 8 8 8 9
2 1 1 1 1 2 2 2 6 9 11 12 10 10 13 10 3 2 6 10 10 9 5 1 4 5 4 5 5 5 8 5 1 3 5 4 3 0 1 2 1 2 4 3 2 4 3 3 7 9 11 10 5 3 3 2 5 5 8 10 12 13 13 8 4 9 10 3 5 10 7 1 3 3 3 2 4 6 5 5 5 6 7 7 7 7 7 8
3 3 3 2 1 2 3 1 5 9 12 13 8 7 14 15 6 1 3 6 8 10 4 2 4 8 7 10 9 7 8 6 3 4 5 4 3 1 2 3 2 3 5 3 1 2 3 5 10 12 14 13 4 3 1 0 4 7 9 12 14 13 13 12 12 13 6 3 9 12 8 6 8 7 6 5 5 5 5 7 5 5 6 6 6 7 7 7
3 3 3 2 2 3 5 6 8 10 12 13 8 7 13 15 11 7 5 2 4 8 6 1 7 13 13 13 11 7 7 7 7 7 5 4 3 3 2 2 1 4 5 2 1 3 4 6 8 10 14 16 8 3 2 1 1 3 5 10 13 15 17 17 20 18 9 8 11 5 8 10 8 6 7 6 6 5 6 7 7 6 7 6 6 6 6 7
1 0 0 1 1 3 7 10 10 10 12 14 9 8 12 16 16 11 5 4 3 7 9 8 11 13 13 12 10 7 8 9 9 8 7 5 5 5 2 1 1 2 4 3 1 2 3 4 5 7 10 15 12 6 3 2 3 5 6 9 11 16 19 19 21 21 15 14 12 1 3 5 2 4 6 4 5 5 5 7 7 8 8 7 7 7 7 8
1 1 1 1 0 1 5 7 8 8 9 11 11 10 11 15 17 12 6 8 8 7 9 13 15 13 12 10 9 10 12 12 9 7 8 7 5 4 4 3 3 2 2 4 2 1 3 3 3 5 5 11 12 10 6 4 6 9 11 13 11 10 13 16 18 16 12 15 17 10 7 7 1 3 1 1 4 6 6 6 7 7 7 7 7 7 8 9
1 2 0 2 2 3 3 4 7 8 7 7 8 8 10 14 17 13 7 8 11 10 12 19 18 10 8 10 11 15 15 11 7 7 10 9 7 6 5 4 6 6 4 5 3 3 4 2 2 4 5 8 8 9 8 4 2 8 17 21 15 8 8 12 14 13 13 15 17 15 12 8 3 4 3 3 5 7 5 5 5 4 6 7 8 10 10 10
1 1 1 1 3 4 4 3 6 8 7 7 9 8 9 12 13 12 6 4 6 7 9 16 14 7 6 13 17 15 9 7 5 4 6 4 4 5 4 4 7 8 7 6 3 4 6 4 2 4 5 5 1 4 5 3 1 8 16 17 15 13 11 12 11 11 12 12 11 11 9 6 5 6 4 3 4 6 5 4 4 5 7 8 10 10 10 9
Wind_Direction
220 227 236 230 212 210 213 218 216 210 208 205 200 198 196 195 195 193 199 206 210 235 265 286 296 307 319 323 327 325 318 323 317 304 310 307 312 272 208 190 173 125 59 59 13 297 266 222 188 285 257 233 311 94 277 303 34 345 282 217 278 32 84 331 44 97 148 134 130 128 17 347 141 131 110 68 255 235 141 99 87 72 80 92 87 65 53 48
229 233 240 238 225 217 214 217 219 218 213 208 206 204 204 199 200 202 204 225 228 240 262 282 295 311 321 324 328 322 321 323 305 300 35 331 300 227 185 168 150 118 81 27 335 311 305 311 42 307 273 231 167 98 233 237 86 262 298 304 349 43 59 0 53 63 80 111 120 109 43 351 69 90 118 236 213 221 173 117 117 97 99 96 77 58 56 52
236 241 248 242 233 227 221 220 219 223 218 210 210 211 218 212 213 215 219 236 238 243 270 286 300 316 321 326 325 326 329 320 292 43 55 37 97 132 146 145 125 115 90 19 342 330 327 333 340 309 295 275 135 97 227 120 349 136 354 358 49 73 78 37 61 65 29 64 117 110 70 333 79 66 160 296 295 258 91 98 120 114 105 88 72 55 55 54
241 245 253 248 236 235 241 239 229 227 225 224 228 230 232 230 226 221 220 234 238 247 275 289 306 316 320 330 323 332 334 313 308 71 84 86 101 111 122 121 106 111 80 19 331 331 321 303 311 307 307 285 138 154 218 101 357 353 27 85 78 27 86 66 66 71 41 25 27 81 57 283 105 64 324 311 306 305 82 52 65 92 86 75 75 61 57 54
241 246 257 256 247 250 246 248 251 240 231 231 236 239 228 227 233 225 226 235 242 253 277 289 309 314 321 332 324 340 341 311 110 116 113 107 111 109 108 102 94 89 70 24 323 335 310 285 300 299 276 243 150 146 47 80 27 315 71 95 82 352 67 93 74 66 55 33 11 81 320 304 81 0 247 247 271 144 92 61 66 75 78 75 74 70 65 58
243 249 258 262 259 265 256 253 265 252 242 241 241 244 238 232 236 233 239 249 257 265 282 295 317 318 328 330 320 340 337 317 145 155 132 124 128 119 111 98 85 67 61 7 323 325 306 298 293 275 264 272 136 96 63 71 41 323 76 89 69 25 66 110 97 75 47 58 231 233 331 52 9 282 222 199 179 107 97 83 87 84 91 90 80 74 67 61
242 252 259 255 249 254 261 259 258 250 242 248 251 248 250 250 247 246 250 261 270 276 288 307 325 323 337 333 324 323 268 13 136 162 152 148 146 138 130 106 85 55 34 319 320 326 338 317 287 322 308 289 329 73 62 347 214 259 254 111 78 25 36 104 116 131 206 238 233 79 26 272 254 275 221 139 107 109 110 96 100 99 98 93 81 76 74 68
238 247 255 251 249 248 253 259 265 258 242 248 262 254 255 261 259 258 260 269 273 279 289 308 334 332 339 339 334 301 238 86 135 163 162 161 156 152 141 111 70 45 3 317 337 344 355 306 298 1 323 323 359 41 82 302 234 230 301 87 91 16 180 122 133 169 195 223 243 171 217 252 238 216 122 131 120 118 119 110 111 113 101 90 79 77 80 74
242 248 255 255 259 262 263 265 269 265 251 252 267 266 266 265 267 271 272 278 278 284 290 290 313 331 336 329 315 295 254 120 147 167 169 174 175 170 152 117 25 4 309 311 337 317 335 328 352 15 335 354 357 339 101 70 275 273 12 10 355 234 203 158 165 196 199 203 205 200 233 247 219 113 101 128 123 123 125 123 127 124 108 94 87 76 76 75
241 248 257 265 276 288 296 286 274 272 261 253 261 267 271 272 275 278 281 284 282 286 285 281 281 301 330 312 271 273 138 129 143 160 175 188 181 165 153 139 200 289 291 301 306 299 335 5 3 22 4 318 273 10 74 95 285 333 7 331 295 275 257 185 197 222 205 193 177 190 246 242 134 121 213 133 127 138 134 134 141 130 112 102 96 78 70 68
236 239 250 261 271 288 307 297 283 281 267 254 256 264 269 276 278 280 287 286 285 283 278 294 269 276 314 296 263 258 163 147 143 149 168 178 167 161 172 177 170 296 311 296 255 333 4 13 351 347 34 330 289 110 79 36 308 353 3 309 274 254 248 213 219 229 198 194 177 191 253 218 118 202 205 135 140 154 142 140 146 133 112 106 102 89 72 66
231 228 237 245 258 284 293 293 290 288 278 261 258 271 278 279 280 283 287 279 279 279 277 301 264 286 312 278 254 216 170 162 156 159 168 170 171 173 184 190 182 167 346 335 36 83 349 8 343 294 10 351 313 169 120 12 329 342 335 284 283 265 247 222 211 198 176 187 172 167 261 229 186 192 131 128 149 158 146 143 142 135 119 118 111 97 81 75
231 225 229 230 246 276 275 280 286 286 285 269 264 280 286 284 282 281 282 266 259 263 262 276 261 304 320 277 210 182 176 169 164 168 173 170 166 167 172 173 186 201 305 358 47 102 236 10 335 302 11 353 311 214 249 154 142 296 253 235 289 295 262 220 185 150 149 163 167 148 280 244 186 147 123 133 156 156 152 151 148 143 132 134 127 113 99 87
234 225 216 213 226 248 256 267 279 285 285 273 265 275 282 284 275 262 254 225 190 211 219 218 237 229 289 263 169 180 187 175 166 170 170 158 146 142 148 161 200 233 227 232 2 173 191 164 306 307 39 9 321 128 261 208 169 268 274 224 221 275 288 223 138 144 153 178 180 160 262 264 145 136 147 152 160 162 164 160 155 151 142 141 137 131 121 104
236 226 203 199 215 231 248 266 284 292 289 276 261 267 277 275 264 238 204 200 171 176 180 191 217 212 276 255 186 183 191 178 167 174 173 156 157 161 144 148 144 165 188 195 198 161 150 169 264 289 101 112 162 214 268 243 204 209 245 264 223 200 237 164 139 166 165 234 204 175 247 248 143 152 159 158 169 176 175 161 156 158 152 151 150 143 130 121
232 228 207 196 209 230 247 268 285 294 300 286 258 256 275 298 11 182 177 173 154 155 152 183 209 217 292 245 165 173 185 183 176 183 185 166 166 152 133 129 115 119 128 130 150 144 149 201 289 344 172 180 200 207 258 271 249 204 189 250 254 216 219 167 166 199 155 130 196 201 246 293 139 159 160 169 179 186 191 165 160 166 159 156 155 146 135 135
228 230 213 194 204 229 241 257 279 296 305 284 238 198 77 79 106 155 157 159 153 156 194 286 230 209 260 182 178 204 158 162 172 182 199 186 167 136 136 140 131 128 119 113 127 149 175 203 104 12 225 215 222 189 199 253 247 220 188 217 246 240 236 194 180 229 172 165 211 207 236 269 157 160 169 183 183 185 199 177 163 164 162 157 148 150 151 145
224 225 212 196 206 227 237 246 269 296 302 253 182 116 104 109 133 141 136 162 145 138 255 277 261 231 233 189 168 127 121 140 160 170 194 189 169 158 164 161 144 145 140 127 162 176 178 180 134 262 246 210 219 192 184 216 221 232 215 209 251 252 242 237 183 182 178 198 236 205 225 246 181 163 176 189 186 189 199 183 162 161 162 158 153 160 151 135
220 218 211 205 212 223 232 236 253 283 294 185 135 105 95 91 137 164 180 193 160 166 254 197 194 218 136 160 127 95 114 135 148 157 177 173 160 167 186 172 156 169 168 151 193 185 163 133 141 224 238 212 207 204 213 226 239 270 287 300 288 288 266 260 116 163 176 188 233 223 234 250 202 172 180 190 189 197 203 173 154 162 161 160 164 160 146 134
218 216 213 214 219 222 223 232 252 261 222 152 118 111 107 119 209 196 196 213 218 237 282 174 188 218 106 130 120 113 117 131 143 148 159 161 153 159 186 187 168 204 223 172 171 171 149 177 199 213 223 222 214 212 225 243 261 278 303 309 282 289 282 277 125 160 153 156 226 236 249 261 247 195 181 182 185 202 207 172 161 170 163 167 166 155 147 132
216 215 215 217 221 220 218 225 250 239 191 174 192 212 227 170 205 150 175 218 228 237 261 235 212 234 173 132 145 145 131 154 186 155 161 165 163 162 177 186 169 198 230 203 150 62 139 207 219 221 225 236 242 234 228 232 250 264 268 279 279 270 269 274 137 152 107 94 240 258 267 263 263 235 178 167 181 203 204 180 177 178 166 168 162 154 145 119
215 214 213 215 216 219 218 220 244 226 191 193 230 233 297 341 172 53 100 241 232 223 238 249 242 246 168 142 162 170 183 196 164 159 172 172 179 185 172 177 190 195 206 200 148 80 235 231 230 229 233 238 248 262 252 234 237 250 252 271 273 261 272 287 112 149 123 110 249 266 273 263 266 253 177 171 190 201 202 186 179 175 167 167 161 156 146 132
213 209 210 212 210 215 213 212 234 216 194 204 222 225 278 284 130 63 209 281 263 212 212 224 231 230 195 161 168 180 207 198 187 184 179 174 179 202 178 175 205 209 192 196 191 194 218 229 226 222 232 240 236 238 260 275 257 238 235 241 250 245 257 263 159 194 181 209 264 293 286 265 268 269 188 186 192 172 159 147 136 150 157 162 161 156 152 150
210 207 210 208 208 217 211 205 215 204 202 217 225 219 244 242 151 83 222 273 265 216 203 205 209 217 207 178 170 184 208 209 209 179 175 177 161 179 197 186 204 215 206 206 204 220 232 238 206 203 214 228 229 210 198 232 253 234 222 222 239 231 232 239 200 169 201 237 246 284 295 264 235 236 215 188 159 112 111 112 92 89 122 125 131 145 153 155
208 209 206 201 212 216 202 193 197 200 204 222 234 224 215 224 206 177 254 281 247 247 221 201 199 215 199 160 160 175 199 216 221 166 172 183 165 148 202 192 205 217 214 214 211 234 245 240 174 189 199 196 210 219 186 183 234 247 225 214 220 231 246 260 250 104 345 280 211 175 274 267 224 225 212 168 146 165 155 164 178 171 141 125 132 149 148 144
203 204 201 203 213 202 185 192 201 196 203 224 237 220 203 204 179 184 198 310 256 232 105 176 174 186 177 152 153 143 161 226 210 153 169 187 184 159 203 185 195 224 217 218 219 240 242 189 168 180 178 171 198 232 186 172 211 249 252 225 205 217 245 276 295 297 231 271 226 151 223 271 304 271 206 168 188 199 179 197 203 185 178 172 168 170 155 146
200 200 202 209 209 189 172 177 188 181 194 236 235 206 194 195 181 195 180 304 265 172 131 183 179 177 162 155 157 133 166 179 96 134 163 187 192 144 212 192 181 219 222 234 229 229 126 144 159 157 157 174 198 222 186 168 185 237 281 357 129 184 228 237 258 256 236 293 285 177 202 273 286 266 178 154 172 199 203 212 209 194 188 183 180 175 165 163
205 202 206 213 208 193 181 159 170 180 199 242 206 187 188 188 186 200 163 252 266 117 122 196 82 93 124 154 164 143 128 139 113 139 45 98 187 92 211 212 198 191 191 208 224 283 118 165 171 164 176 204 200 215 195 173 176 232 247 54 86 111 224 221 230 251 276 309 257 194 170 267 267 215 144 149 171 206 219 212 207 199 185 181 181 172 164 164
212 208 210 213 204 197 197 194 176 190 209 195 165 177 178 178 184 128 56 227 230 100 113 132 108 96 120 157 179 153 106 70 103 262 31 87 193 54 214 232 242 208 202 216 224 285 53 180 170 175 199 212 175 22 289 179 180 190 133 83 72 76 55 33 221 225 281 259 230 194 177 223 267 216 150 171 201 215 220 207 201 194 181 179 177 165 160 159
216 214 211 204 193 192 201 215 210 199 202 191 170 169 163 165 178 141 193 229 248 100 99 120 150 149 147 154 176 166 146 82 83 126 141 182 169 14 278 275 295 262 234 232 239 232 113 124 112 196 221 165 116 53 7 67 141 151 133 92 76 80 66 39 244 144 268 256 213 194 198 210 265 223 163 193 215 206 203 187 182 182 178 178 172 163 159 156
211 216 210 198 192 190 190 209 215 202 199 194 167 157 153 133 85 178 201 251 329 142 128 140 147 143 159 164 167 185 177 137 133 146 155 177 170 204 239 171 209 271 285 272 262 212 138 132 109 29 346 113 105 69 9 10 88 135 129 109 103 33 56 33 270 178 235 256 209 193 202 209 237 237 177 204 213 196 188 175 174 177 177 175 168 162 157 155
206 213 209 199 195 193 188 200 204 197 199 188 161 153 157 125 199 217 209 86 47 185 146 149 162 160 175 178 171 177 171 156 161 165 159 168 178 192 202 193 159 169 238 236 220 215 226 208 167 127 289 176 131 97 23 353 332 158 133 124 133 185 37 214 212 199 229 255 241 193 200 218 236 244 236 241 243 191 182 171 173 174 174 170 163 158 153 155
209 211 209 201 197 195 194 195 193 193 193 176 161 160 181 174 204 213 200 168 186 197 128 140 169 174 176 182 172 157 161 162 165 169 164 164 187 206 211 215 193 192 222 192 187 193 243 225 178 162 284 197 172 170 179 244 210 185 161 151 167 179 226 233 210 225 236 247 286 242 178 254 278 262 246 237 70 21 15 121 159 161 161 160 154 151 148 153
214 212 207 203 201 201 199 194 190 191 184 168 158 173 194 208 216 205 202 202 188 97 129 144 158 168 178 187 161 149 162 168 161 168 171 170 195 207 206 217 214 218 218 168 190 177 213 264 185 172 181 180 190 202 188 151 172 196 180 175 190 179 199 220 205 233 244 259 303 308 142 193 214 260 263 281 66 24 18 75 114 122 133 138 136 142 149 156
214 212 207 201 201 203 199 195 193 188 179 166 165 180 192 213 218 208 209 200 172 138 141 144 146 161 189 193 153 163 181 160 165 176 186 187 205 202 197 206 205 203 175 188 212 175 211 261 174 163 156 167 189 213 176 127 157 209 177 192 216 199 204 237 212 203 188 347 281 228 230 225 195 187 104 78 55 27 28 93 113 118 129 134 142 152 159 164
208 207 206 199 198 201 197 193 190 185 179 175 186 190 199 209 201 193 192 185 179 151 138 146 153 168 191 176 160 188 200 111 163 179 205 208 223 215 204 196 192 197 191 186 196 168 197 260 136 126 114 163 189 218 177 150 169 186 175 199 205 135 180 242 265 82 109 275 253 178 245 282 275 278 166 130 93 40 19 125 126 134 138 143 159 165 167 170
201 201 201 199 201 200 195 191 185 182 181 190 202 201 206 214 204 175 182 183 169 150 150 173 181 178 189 182 178 184 171 114 168 176 177 195 226 219 210 203 186 198 204 195 217 201 170 219 267 137 138 187 320 329 186 54 97 137 182 194 131 61 40 199 270 333 191 254 256 174 213 231 197 240 195 146 156 179 210 167 133 137 150 161 172 171 172 170
201 199 202 207 204 197 193 190 181 177 184 207 211 217 214 217 215 199 201 184 159 158 179 205 191 181 190 194 181 169 166 162 174 178 170 182 219 202 197 203 191 198 204 198 222 256 162 201 276 344 101 58 2 28 179 355 54 109 205 214 115 155 217 152 207 249 209 239 273 212 208 208 203 210 174 183 197 186 185 183 162 161 169 175 175 173 171 164
202 199 220 211 202 194 190 186 176 174 206 203 204 216 215 215 214 200 217 198 167 169 194 208 198 193 202 196 163 160 176 177 169 176 183 187 212 192 183 192 201 199 196 193 207 234 140 192 249 322 340 110 83 190 182 195 172 50 330 294 104 165 192 165 188 232 201 236 269 254 221 221 216 195 176 193 200 180 174 186 186 179 178 179 175 173 174 170
195 196 243 199 192 190 186 180 173 180 204 204 202 206 204 210 210 199 210 216 189 177 201 204 197 196 204 187 151 156 178 180 170 179 193 187 200 211 182 182 195 191 182 188 198 180 124 204 205 308 328 127 153 206 190 188 191 185 210 216 194 176 116 118 239 206 196 238 257 261 268 252 237 194 186 193 191 178 177 184 189 184 180 181 177 176 178 176
183 214 213 177 181 181 176 173 182 189 195 213 215 209 199 195 197 194 202 225 263 332 232 210 203 195 186 176 161 150 152 171 183 180 189 198 200 218 228 206 186 158 135 164 192 185 183 194 175 172 234 204 209 210 200 196 191 192 197 194 195 190 160 213 244 205 199 234 215 228 264 256 258 325 237 196 183 180 182 180 178 179 178 180 179 179 180 178
191 221 162 167 174 171 165 178 197 181 198 213 214 215 191 164 188 189 187 195 284 346 350 301 225 192 184 178 156 141 143 164 195 190 200 211 203 198 256 304 157 139 116 121 186 155 77 118 201 197 202 223 257 195 175 159 150 222 233 200 190 190 181 203 226 196 183 224 185 150 277 271 264 339 352 352 141 162 173 170 165 171 176 175 173 172 175 178
197 200 107 163 170 166 164 205 187 183 213 205 207 223 198 189 206 190 183 188 186 149 158 255 222 199 196 161 136 158 158 166 194 194 201 213 209 166 349 338 103 132 125 123 167 97 68 120 199 272 299 331 356 41 57 52 68 267 258 203 191 206 199 202 217 168 171 218 188 170 252 265 292 9 8 359 42 102 128 146 152 158 162 164 164 162 167 172
174 159 64 172 174 171 176 200 185 194 207 192 198 213 209 215 211 198 191 191 189 172 173 195 203 210 206 154 148 172 174 183 203 198 192 196 194 48 38 14 77 138 149 160 161 163 180 159 136 172 275 280 258 248 342 336 207 217 226 203 212 216 201 209 239 129 239 224 181 184 242 252 302 5 6 10 49 78 81 99 134 148 152 157 159 157 162 164
136 77 16 204 188 183 194 201 189 195 197 193 199 202 204 218 214 211 201 190 193 192 186 198 191 172 159 148 143 173 188 202 205 191 206 196 175 144 1 9 51 153 148 80 147 156 172 177 163 185 220 228 224 207 218 215 184 215 214 197 216 216 200 206 211 210 241 224 164 198 243 263 344 0 3 41 79 87 76 71 94 126 140 147 153 155 158 161
195 246 232 218 261 228 232 206 187 192 192 192 199 202 205 208 208 229 205 195 197 190 178 152 161 155 153 167 168 184 203 216 167 161 198 191 162 118 82 73 43 137 120 106 161 149 135 194 203 208 226 234 218 194 228 160 145 199 208 192 208 215 206 208 211 217 228 204 195 223 217 202 280 241 215 191 124 116 120 108 101 118 129 133 142 148 151 157
209 208 172 167 255 222 234 247 189 197 195 188 187 189 200 207 203 135 205 208 192 182 170 45 166 181 183 183 190 198 193 194 188 178 182 164 126 78 114 111 74 114 120 117 219 116 122 214 218 216 236 246 208 142 247 128 173 204 207 200 207 209 204 209 221 223 201 155 246 236 179 186 229 210 205 205 156 140 151 156 154 139 129 123 125 134 142 149
221 194 163 186 228 200 215 216 198 202 195 184 187 188 191 202 201 185 196 199 167 175 174 199 210 203 194 187 193 197 181 185 202 195 173 151 144 134 117 103 114 139 132 120 353 102 144 230 223 208 236 249 234 168 120 57 241 230 215 212 209 204 204 208 222 227 204 203 242 221 158 207 223 186 204 204 171 168 153 152 157 138 127 125 127 141 158 161
194 235 203 219 224 199 214 211 198 205 195 179 188 201 192 198 202 195 170 123 160 193 189 206 216 206 199 191 182 184 184 187 204 202 181 171 171 160 150 165 169 144 138 145 167 137 172 234 212 190 235 251 244 229 181 161 263 271 248 232 219 212 210 210 222 229 221 228 244 147 117 249 232 163 210 202 156 155 121 120 134 134 139 144 146 163 181 186
169 236 206 156 222 230 227 205 185 210 209 184 191 202 194 198 200 194 164 158 182 191 190 214 220 202 196 191 181 200 203 193 197 190 168 168 177 177 190 184 141 112 165 167 162 182 200 215 147 147 235 255 245 236 224 212 244 260 258 247 235 223 216 217 227 230 224 238 245 239 244 261 227 133 172 80 114 115 99 105 114 123 141 150 163 186 196 201
180 331 69 171 202 190 201 184 172 203 219 199 199 195 193 203 200 192 191 194 195 184 186 209 215 195 183 191 199 216 213 197 191 172 164 177 184 181 194 176 141 146 177 178 155 162 188 211 101 134 219 251 241 227 224 212 240 266 261 249 233 216 212 219 226 221 215 226 236 239 243 241 191 117 88 89 120 122 126 122 110 134 166 168 188 201 201 202
162 345 7 236 224 181 174 179 185 200 208 205 209 196 194 208 200 187 196 229 218 206 204 211 204 158 164 201 212 218 201 162 153 138 143 155 136 142 164 159 151 155 165 171 160 162 177 189 159 165 212 258 249 173 176 127 101 258 258 245 220 208 217 224 225 221 215 215 224 232 232 208 158 135 137 156 146 140 146 140 150 193 195 191 205 209 202 197